Temp
53 53 53 53 53 53 53 53 54 54 54 54 54 54 55 55 55 57 67 71 66 68 74 74 74 69 71 71 65 69 68 68 68 61 62 62 60 63 59 62 59 55 50 47 47 43 39 54 60 46 53 61 58 55
52 53 53 53 53 53 53 53 53 53 53 53 54 54 54 55 55 55 63 73 72 64 71 77 77 78 74 72 68 70 67 66 71 65 65 66 61 62 59 50 61 49 49 46 46 44 50 51 45 48 51 50 53 59
52 52 52 52 52 52 52 52 52 53 53 53 53 54 54 55 55 54 58 68 70 67 73 75 74 78 81 79 79 66 72 70 69 69 67 66 58 63 52 45 52 50 52 41 45 46 47 48 49 48 51 49 51 55
51 51 51 51 51 52 52 52 52 52 52 52 53 54 54 55 54 54 57 70 69 69 65 65 81 76 81 81 77 75 71 72 69 71 67 58 54 59 44 44 39 40 44 43 46 51 52 50 49 45 46 49 50 51
51 51 51 51 51 52 51 52 52 52 52 53 54 54 54 54 53 55 63 71 74 66 63 66 76 79 80 78 75 75 72 68 65 56 57 55 58 53 49 53 43 52 46 45 44 52 48 49 55 55 54 52 50 47
51 51 51 51 51 51 51 51 52 52 52 53 54 54 53 53 52 67 66 72 75 72 64 61 76 75 78 76 73 71 73 72 70 61 59 54 55 54 49 44 50 52 54 54 49 56 55 56 58 59 53 53 56 53
50 51 51 51 51 51 51 51 52 52 52 53 53 53 53 53 62 68 64 68 63 73 66 64 59 70 77 75 76 71 70 70 69 68 62 63 60 57 44 40 55 59 57 57 59 56 53 54 53 55 57 56 54 56
50 50 51 51 51 51 51 51 51 52 52 52 52 53 54 53 54 63 68 60 61 69 71 63 65 67 75 68 63 75 65 71 65 66 65 62 61 60 42 54 57 58 56 55 54 53 51 53 53 53 55 54 51 52
50 50 51 51 51 51 51 51 52 52 51 51 52 54 63 64 71 69 57 56 68 67 63 69 58 56 76 70 69 65 71 62 68 64 61 59 57 45 52 53 55 52 51 49 48 47 48 45 46 47 47 48 50 50
50 50 50 51 51 50 51 51 51 51 51 53 61 68 66 69 58 62 64 65 66 69 69 64 71 58 73 69 58 61 64 62 47 57 63 53 48 57 56 57 54 55 51 46 40 39 40 39 40 41 43 47 48 51
50 50 51 51 51 51 51 51 51 50 57 67 63 66 66 62 70 69 64 63 64 58 66 68 63 65 71 62 63 65 61 61 45 49 51 50 47 52 56 54 56 52 48 43 42 42 41 41 41 42 43 48 49 54
50 50 50 50 51 51 51 51 50 53 53 50 48 50 57 67 65 61 61 67 64 59 65 65 67 69 70 70 58 61 58 58 44 58 50 44 48 54 54 54 52 47 43 42 43 40 39 40 43 44 46 49 52 54
50 50 50 50 50 51 51 51 50 50 51 58 49 55 67 68 48 57 54 59 61 67 66 68 64 68 67 68 64 63 52 52 58 50 48 49 53 53 53 55 49 44 43 43 43 42 40 43 43 46 47 47 48 46
49 49 50 50 50 51 51 50 50 52 52 61 62 41 61 60 62 62 63 65 69 69 69 68 67 65 68 64 62 53 57 58 48 44 45 51 48 51 54 50 45 40 43 44 43 42 39 40 39 40 40 41 42 41
49 49 50 52 52 51 50 50 51 55 61 62 64 48 64 71 73 72 74 68 71 73 69 67 68 68 63 59 62 55 50 47 47 46 53 49 49 51 50 46 43 42 44 45 43 42 40 40 39 37 39 39 39 39
49 50 58 53 51 50 50 55 57 59 60 61 63 63 71 69 65 67 68 64 74 73 70 72 64 59 58 60 53 49 46 43 51 55 55 51 50 51 47 48 45 45 44 45 43 43 41 40 39 39 40 40 40 39
48 63 53 52 50 50 53 55 58 54 59 58 65 71 71 73 71 67 69 69 74 66 63 66 54 53 61 56 52 56 49 55 58 59 58 53 51 47 49 48 45 43 43 43 43 43 43 43 44 43 40 41 41 42
57 61 54 51 51 54 63 60 55 54 55 66 63 70 74 73 72 67 72 73 68 69 68 60 64 56 51 47 49 59 62 63 61 58 55 54 49 50 49 44 44 44 43 44 44 44 43 42 40 40 42 42 42 42
53 53 50 49 50 49 56 63 62 51 61 70 74 74 74 74 75 75 76 74 73 74 71 67 58 56 56 60 60 62 62 61 60 59 56 54 50 48 45 47 47 47 46 43 43 42 43 44 43 44 45 46 44 47
48 49 50 50 51 51 55 63 67 58 57 61 71 69 70 67 71 75 74 73 70 67 60 60 60 61 62 61 63 61 62 63 63 59 58 57 56 50 48 48 46 47 47 47 45 43 45 44 46 49 54 53 54 54
55 59 54 56 54 54 56 61 63 67 64 63 65 72 62 71 68 67 64 72 63 61 57 65 63 62 63 64 65 63 60 61 60 60 59 57 59 58 54 54 52 53 56 53 49 45 45 48 54 55 56 57 57 56
62 52 59 59 53 55 55 63 63 66 64 67 68 69 62 62 63 64 69 67 61 64 69 67 65 62 62 60 61 62 59 58 56 54 49 49 58 58 58 60 57 58 57 55 55 56 56 58 59 59 58 56 54 55
54 53 53 53 49 50 51 69 57 63 59 63 66 61 61 64 65 74 62 64 64 71 70 67 65 66 63 62 61 60 60 59 60 59 59 60 60 60 60 60 61 58 57 57 59 58 56 45 54 58 58 58 57 56
48 48 48 50 53 48 61 54 60 61 63 62 60 56 60 61 67 65 58 59 67 70 68 63 66 63 63 60 61 60 61 64 62 60 61 60 59 59 61 60 61 61 60 60 59 58 58 58 52 58 57 56 56 55
42 44 48 40 55 51 50 51 52 51 51 56 55 56 56 65 61 58 57 61 67 68 67 68 68 66 64 65 65 63 62 64 62 59 61 64 61 60 60 61 61 62 63 60 58 58 58 58 57 56 56 55 54 54
37 51 43 52 52 46 46 45 47 52 55 54 57 64 62 60 55 54 58 63 64 67 68 68 66 66 69 71 66 63 62 66 64 61 61 64 63 61 58 57 56 58 65 63 60 58 57 58 56 55 54 50 39 52
40 50 59 61 54 54 51 53 55 53 52 52 59 58 57 51 54 58 67 71 66 69 73 72 71 69 68 69 68 67 66 66 63 65 64 65 66 66 63 59 56 59 63 63 63 60 58 57 56 55 54 55 54 54
54 53 50 55 55 59 53 54 54 52 54 60 57 52 52 54 53 59 65 69 71 75 76 75 73 73 71 68 66 66 65 65 62 63 64 63 65 65 64 64 61 35 60 60 59 62 61 60 58 57 55 54 54 56
50 53 53 48 49 53 55 55 55 62 65 62 51 52 56 62 59 58 62 69 75 73 70 70 70 72 69 65 62 68 66 62 58 54 53 54 56 59 63 62 58 59 61 59 30 41 53 58 58 58 56 57 57 57
50 57 47 46 45 46 55 60 59 63 64 64 65 64 64 67 70 74 72 71 68 66 66 68 70 68 66 62 54 57 65 66 64 61 57 56 58 63 62 62 61 62 63 62 59 56 36 51 47 57 56 57 57 56
56 52 44 44 45 53 56 60 61 61 60 61 64 61 61 65 70 73 72 72 73 74 73 72 70 69 67 57 53 48 59 65 66 66 66 66 65 64 63 63 63 63 63 62 60 59 58 57 59 56 55 54 52 52
50 47 44 40 46 57 59 54 54 55 55 58 60 63 62 59 58 67 76 74 72 71 63 66 73 70 67 64 59 62 48 65 64 64 64 65 66 65 65 65 65 64 62 61 61 60 58 57 57 56 54 52 53 53
51 51 51 47 45 44 50 48 53 53 60 59 59 58 58 57 55 58 72 72 71 73 73 75 76 76 71 64 64 53 53 61 56 43 41 42 43 52 64 66 65 63 62 61 61 60 58 56 56 54 54 54 53 53
MSLP
1027.71 1027.06 1026.43 1025.81 1025.16 1024.51 1023.88 1023.19 1022.40 1021.78 1021.23 1020.69 1020.20 1019.60 1019.03 1018.57 1018.00 1017.38 1014.78 1014.07 1013.63 1011.03 1008.80 1008.57 1008.26 1007.99 1007.44 1006.80 1006.26 1006.12 1005.96 1005.65 1005.22 1004.71 1004.08 1003.44 1003.47 1003.75 1004.83 1004.98 1005.74 1006.74 1007.65 1008.31 1009.02 1009.43 1009.56 1010.16 1009.12 1010.91 1009.80 1008.36 1008.24 1008.36
1027.67 1026.99 1026.35 1025.65 1024.96 1024.34 1023.68 1022.91 1022.13 1021.42 1020.83 1020.27 1019.81 1019.22 1018.71 1018.17 1017.76 1017.37 1014.86 1013.51 1013.73 1012.76 1009.65 1009.26 1008.86 1008.82 1008.81 1008.61 1008.32 1007.19 1006.75 1006.56 1005.70 1005.24 1004.84 1004.43 1004.53 1005.27 1005.93 1006.70 1007.74 1009.88 1011.47 1010.65 1011.23 1011.68 1012.72 1013.08 1013.46 1013.82 1012.80 1011.70 1011.02 1009.89
1027.55 1026.82 1026.10 1025.39 1024.70 1024.11 1023.44 1022.70 1021.89 1021.12 1020.42 1019.77 1019.26 1018.71 1018.19 1017.71 1017.37 1017.25 1015.85 1014.27 1013.35 1011.67 1009.18 1008.39 1007.84 1008.57 1008.64 1008.64 1008.64 1008.14 1006.78 1007.57 1007.34 1007.81 1006.84 1006.40 1006.44 1007.17 1007.94 1010.41 1011.03 1012.11 1012.99 1012.99 1013.19 1013.07 1013.79 1014.30 1014.38 1014.84 1014.35 1013.78 1012.84 1012.14
1027.32 1026.63 1025.94 1025.19 1024.43 1023.83 1023.08 1022.36 1021.53 1020.74 1019.99 1019.30 1018.67 1018.07 1017.54 1017.08 1016.73 1016.62 1015.60 1013.56 1013.11 1011.27 1009.06 1008.64 1008.16 1008.29 1008.66 1008.48 1008.67 1008.81 1008.71 1008.59 1008.60 1008.05 1007.47 1007.73 1008.88 1010.34 1011.99 1013.35 1014.17 1015.56 1014.98 1014.31 1013.63 1013.44 1013.67 1014.00 1014.60 1015.00 1014.79 1014.59 1014.05 1013.37
1027.06 1026.38 1025.69 1024.90 1024.09 1023.40 1022.62 1021.93 1021.13 1020.25 1019.43 1018.68 1017.98 1017.33 1016.76 1016.20 1015.71 1015.53 1014.80 1013.21 1012.59 1012.28 1009.63 1008.07 1007.91 1008.28 1008.35 1008.49 1008.50 1008.64 1008.72 1008.60 1007.97 1008.36 1008.92 1009.83 1011.25 1012.28 1013.73 1013.86 1014.63 1015.05 1015.08 1014.72 1014.17 1014.31 1014.43 1013.97 1013.62 1013.68 1013.37 1013.58 1013.71 1013.50
1026.79 1026.08 1025.31 1024.53 1023.72 1022.99 1022.22 1021.40 1020.60 1019.67 1018.81 1018.05 1017.28 1016.54 1016.01 1015.46 1015.06 1013.61 1012.79 1012.52 1012.41 1012.65 1010.89 1007.95 1007.90 1007.70 1007.94 1008.57 1008.75 1008.86 1008.43 1008.24 1008.38 1008.88 1009.96 1012.14 1013.41 1013.68 1013.42 1013.95 1014.68 1015.05 1014.93 1014.85 1014.51 1014.22 1013.89 1013.63 1013.36 1012.83 1012.76 1012.81 1012.17 1012.34
1026.43 1025.68 1024.96 1024.13 1023.29 1022.58 1021.75 1020.95 1019.97 1019.16 1018.14 1017.13 1016.35 1015.64 1015.05 1014.85 1014.37 1013.22 1013.37 1012.82 1012.93 1012.62 1010.71 1007.97 1008.32 1008.28 1007.90 1007.83 1008.14 1008.47 1009.31 1009.27 1009.19 1009.62 1010.25 1011.36 1012.21 1013.56 1014.24 1014.44 1014.11 1013.90 1014.07 1014.03 1013.86 1013.78 1013.37 1013.17 1012.57 1012.91 1012.26 1012.15 1012.18 1011.61
1026.05 1025.28 1024.52 1023.71 1022.92 1022.15 1021.38 1020.43 1019.48 1018.51 1017.44 1016.33 1015.64 1014.81 1014.19 1014.47 1014.76 1013.88 1013.55 1013.68 1013.74 1012.03 1010.19 1007.98 1007.14 1007.25 1008.04 1007.87 1008.18 1008.53 1009.24 1009.23 1010.05 1010.24 1010.86 1011.14 1012.13 1012.59 1013.98 1013.86 1013.99 1014.40 1014.55 1014.61 1014.70 1014.89 1014.40 1013.57 1012.92 1012.66 1012.14 1011.89 1011.67 1011.00
1025.71 1024.89 1024.11 1023.33 1022.58 1021.76 1020.97 1020.02 1019.05 1017.97 1016.53 1015.38 1014.93 1014.68 1014.26 1013.91 1012.16 1012.67 1013.69 1013.71 1013.18 1012.34 1009.73 1007.74 1007.81 1007.21 1007.37 1007.53 1008.14 1009.14 1009.13 1009.12 1010.40 1010.26 1011.23 1012.24 1011.95 1013.00 1013.62 1014.43 1014.35 1015.22 1015.14 1015.11 1015.38 1015.35 1014.78 1014.29 1013.60 1012.96 1012.43 1011.75 1010.78 1010.43
1025.31 1024.50 1023.74 1023.00 1022.26 1021.46 1020.63 1019.80 1018.94 1017.52 1015.72 1014.17 1014.15 1013.26 1011.59 1012.34 1013.35 1013.22 1013.16 1012.03 1011.53 1010.64 1009.89 1008.41 1007.70 1007.63 1007.52 1007.54 1008.59 1009.08 1009.45 1009.47 1010.72 1011.43 1012.36 1012.47 1012.95 1013.09 1014.00 1014.64 1015.38 1015.28 1015.77 1016.11 1015.82 1015.00 1014.73 1014.11 1013.61 1012.66 1011.93 1011.35 1010.73 1009.93
1024.93 1024.13 1023.34 1022.63 1021.92 1021.19 1020.40 1019.73 1019.06 1017.57 1015.03 1014.01 1013.90 1013.16 1013.30 1012.96 1012.34 1011.08 1009.97 1009.58 1009.45 1009.34 1008.60 1008.02 1008.70 1007.49 1008.03 1008.07 1007.98 1008.89 1009.64 1010.39 1011.20 1012.54 1012.44 1012.70 1013.09 1013.83 1014.65 1015.37 1015.56 1016.07 1016.73 1016.75 1016.42 1015.65 1014.91 1014.04 1013.04 1012.05 1011.11 1010.60 1010.06 1009.10
1024.50 1023.72 1022.93 1022.19 1021.48 1020.87 1020.27 1019.80 1019.22 1018.35 1017.92 1018.10 1017.84 1016.87 1014.85 1011.95 1010.45 1009.52 1008.37 1007.77 1007.75 1007.99 1008.19 1007.90 1007.96 1008.26 1008.14 1008.92 1009.07 1009.47 1009.45 1010.32 1011.37 1013.09 1012.99 1012.99 1013.98 1014.70 1015.32 1015.68 1016.22 1017.08 1017.25 1016.86 1016.31 1015.71 1014.99 1014.03 1012.73 1011.20 1010.38 1010.05 1009.69 1009.25
1024.00 1023.18 1022.41 1021.71 1021.07 1020.44 1020.00 1019.50 1019.03 1018.60 1017.88 1016.82 1016.89 1014.74 1012.05 1009.95 1009.06 1007.88 1007.31 1007.54 1007.71 1007.63 1007.96 1007.56 1007.54 1008.23 1008.70 1008.96 1008.95 1009.38 1009.89 1010.37 1012.40 1012.19 1012.34 1013.35 1014.42 1015.49 1015.94 1016.01 1017.07 1017.75 1017.60 1017.09 1016.39 1015.84 1015.10 1013.93 1012.70 1011.17 1010.45 1010.53 1010.27 1010.15
1023.45 1022.52 1021.72 1021.06 1020.73 1020.24 1019.58 1018.94 1018.33 1017.66 1017.19 1014.50 1012.95 1012.26 1010.02 1008.26 1007.59 1007.27 1007.09 1007.18 1007.73 1007.80 1007.77 1007.91 1007.57 1008.35 1008.55 1008.84 1009.49 1009.53 1010.48 1011.11 1011.31 1011.75 1012.56 1013.99 1015.76 1016.15 1016.24 1017.27 1017.84 1018.01 1017.82 1017.26 1016.88 1016.36 1015.77 1014.92 1014.23 1013.37 1013.09 1012.67 1012.17 1011.76
1022.91 1021.79 1020.96 1020.48 1020.28 1019.66 1019.00 1018.38 1017.80 1017.37 1015.53 1012.98 1011.75 1010.13 1008.33 1007.85 1007.44 1007.53 1007.61 1007.83 1008.01 1008.12 1007.95 1007.76 1007.83 1008.50 1008.71 1009.38 1009.95 1010.54 1010.67 1010.78 1011.72 1012.25 1013.13 1015.35 1016.49 1016.73 1017.21 1017.87 1018.32 1018.35 1018.05 1017.59 1017.47 1017.08 1016.72 1016.14 1015.65 1015.23 1014.82 1014.28 1013.72 1013.20
1022.49 1020.94 1020.18 1020.00 1019.64 1019.21 1018.48 1017.51 1017.11 1016.61 1014.97 1012.98 1011.14 1009.11 1008.00 1007.39 1007.56 1007.82 1007.64 1008.10 1008.05 1007.81 1008.19 1008.02 1008.33 1008.69 1009.14 1009.64 1009.91 1010.52 1011.04 1011.47 1011.87 1012.75 1014.40 1016.12 1016.72 1017.18 1017.87 1018.01 1018.49 1018.54 1018.52 1018.15 1018.04 1017.73 1017.49 1017.11 1016.77 1016.57 1016.18 1015.71 1015.47 1015.26
1022.03 1020.01 1019.91 1019.79 1019.43 1018.75 1017.72 1017.53 1016.44 1015.42 1013.70 1012.00 1009.45 1008.58 1007.87 1007.55 1007.38 1007.75 1007.87 1007.91 1008.38 1008.18 1007.84 1008.24 1008.65 1009.21 1009.88 1009.85 1010.20 1011.11 1011.54 1011.87 1012.65 1013.28 1014.67 1016.29 1017.04 1017.92 1018.05 1018.45 1018.86 1018.99 1018.87 1018.67 1018.52 1018.27 1018.01 1017.79 1017.45 1017.13 1016.88 1016.89 1016.75 1016.53
1021.58 1020.21 1020.10 1019.91 1019.49 1018.02 1017.04 1016.63 1015.86 1014.67 1012.52 1010.32 1008.66 1007.82 1007.98 1007.88 1007.67 1008.09 1008.12 1008.29 1008.39 1008.09 1008.34 1008.92 1009.59 1009.53 1010.06 1010.54 1011.08 1011.28 1011.63 1012.22 1013.27 1014.29 1015.58 1016.52 1017.84 1018.01 1018.58 1019.11 1019.32 1019.29 1019.23 1019.11 1019.04 1018.88 1018.67 1018.43 1018.20 1018.02 1017.82 1017.79 1017.53 1017.35
1021.21 1020.69 1020.21 1019.85 1019.74 1019.16 1016.80 1014.97 1014.85 1013.64 1010.90 1009.39 1008.56 1008.35 1008.02 1007.85 1008.29 1008.42 1008.33 1008.85 1009.02 1009.02 1008.86 1009.10 1009.55 1009.88 1010.40 1011.16 1011.38 1011.57 1012.05 1012.75 1013.27 1014.19 1015.63 1016.87 1017.92 1018.32 1019.01 1019.15 1019.22 1019.17 1019.28 1019.45 1019.35 1019.27 1019.17 1018.99 1018.79 1018.52 1018.29 1017.99 1017.58 1017.31
1020.32 1019.82 1019.58 1019.35 1019.28 1018.25 1016.17 1013.96 1013.92 1012.90 1011.14 1010.17 1009.00 1008.23 1007.91 1008.07 1008.23 1008.21 1008.35 1008.55 1008.63 1008.71 1009.12 1009.15 1009.84 1010.53 1010.85 1011.78 1012.29 1012.73 1013.20 1013.59 1013.66 1014.00 1014.78 1016.06 1017.17 1018.15 1018.72 1018.94 1019.28 1019.24 1019.09 1019.39 1019.64 1019.57 1019.47 1019.38 1019.24 1018.55 1017.68 1017.16 1016.75 1016.52
1019.08 1018.67 1018.48 1018.65 1018.40 1017.76 1016.33 1014.14 1012.38 1011.41 1010.96 1009.71 1009.06 1008.25 1008.30 1008.06 1007.98 1008.00 1008.37 1008.40 1008.67 1008.75 1009.22 1009.74 1010.53 1011.76 1012.25 1012.68 1013.11 1013.49 1014.08 1014.18 1014.23 1014.37 1014.73 1015.52 1016.59 1016.98 1017.64 1018.11 1018.73 1018.69 1018.03 1018.26 1019.18 1019.57 1019.29 1019.02 1018.42 1017.97 1017.34 1016.85 1017.01 1017.36
1019.28 1019.47 1018.65 1018.08 1017.60 1016.59 1015.56 1014.05 1012.54 1011.57 1011.00 1009.27 1008.63 1008.16 1008.01 1007.80 1007.85 1008.02 1008.22 1008.09 1008.54 1008.73 1009.11 1009.82 1010.94 1012.09 1012.68 1013.23 1013.62 1013.97 1014.77 1015.10 1015.56 1015.88 1016.12 1016.48 1016.13 1016.25 1016.63 1016.79 1017.26 1017.30 1017.33 1017.85 1018.19 1017.97 1017.78 1017.84 1017.70 1017.44 1017.48 1017.77 1018.09 1018.13
1019.52 1019.78 1018.89 1018.16 1017.22 1015.59 1014.40 1012.64 1012.26 1010.93 1009.91 1008.76 1008.27 1007.99 1007.85 1007.66 1007.85 1007.95 1007.94 1008.20 1008.59 1009.04 1009.87 1010.59 1011.50 1011.99 1012.53 1013.51 1014.16 1014.63 1014.90 1014.96 1014.97 1015.59 1015.94 1016.04 1016.34 1016.51 1016.70 1016.80 1016.89 1016.97 1017.22 1017.57 1017.83 1018.00 1018.24 1018.35 1018.07 1017.57 1017.73 1017.71 1017.76 1017.89
1020.19 1019.45 1018.24 1016.97 1016.07 1015.09 1013.57 1012.82 1011.93 1011.00 1009.85 1008.90 1008.40 1008.17 1007.83 1007.85 1007.94 1007.60 1007.94 1008.34 1008.45 1009.31 1010.17 1011.14 1011.53 1012.21 1012.88 1013.61 1013.62 1014.13 1014.61 1014.63 1014.93 1015.55 1015.94 1015.93 1016.09 1016.43 1016.68 1016.92 1017.09 1017.27 1017.45 1017.65 1017.87 1018.03 1018.18 1018.36 1018.22 1018.02 1018.10 1018.13 1018.14 1018.19
1019.82 1018.52 1017.46 1016.60 1015.50 1014.68 1013.65 1012.92 1012.39 1011.86 1010.46 1009.64 1009.10 1008.65 1008.58 1007.75 1007.58 1007.59 1007.66 1007.95 1008.18 1008.83 1009.83 1010.51 1010.80 1011.25 1011.38 1011.94 1012.56 1013.55 1014.59 1014.49 1014.63 1015.05 1015.59 1015.57 1016.01 1016.46 1016.73 1017.01 1017.34 1017.51 1017.56 1017.67 1017.85 1017.99 1018.16 1018.33 1018.51 1018.61 1018.65 1018.64 1018.61 1018.64
1018.82 1016.98 1016.71 1015.48 1015.02 1015.04 1014.45 1013.53 1012.96 1011.79 1010.93 1010.10 1009.15 1008.80 1008.72 1008.45 1008.02 1007.66 1007.86 1007.86 1008.05 1008.52 1009.35 1009.77 1010.14 1010.47 1010.65 1011.12 1011.85 1012.93 1014.00 1014.23 1014.50 1014.73 1015.42 1015.56 1015.80 1015.93 1016.40 1016.86 1017.25 1017.68 1017.72 1017.80 1017.98 1018.13 1018.26 1018.47 1018.67 1018.83 1019.22 1019.60 1019.87 1019.34
1017.76 1015.95 1015.55 1015.28 1015.23 1014.82 1014.29 1013.64 1012.99 1012.34 1011.19 1010.08 1009.17 1008.92 1008.96 1008.56 1007.93 1008.35 1008.03 1007.87 1008.40 1008.63 1008.96 1009.38 1009.88 1010.53 1010.62 1011.18 1011.98 1012.90 1013.75 1014.26 1014.50 1014.52 1015.33 1015.61 1015.85 1016.00 1016.33 1016.64 1017.13 1017.71 1018.11 1018.28 1018.30 1018.33 1018.48 1018.64 1018.87 1019.06 1019.38 1019.56 1019.69 1019.70
1016.99 1016.39 1015.50 1014.95 1014.57 1014.14 1013.59 1013.06 1012.29 1011.63 1010.81 1010.46 1010.16 1009.39 1009.04 1008.75 1009.13 1009.39 1009.11 1008.98 1009.14 1009.17 1009.02 1009.51 1010.11 1010.41 1010.86 1011.67 1012.55 1013.25 1013.95 1014.41 1015.26 1015.38 1015.71 1016.08 1016.28 1016.46 1016.73 1017.05 1017.80 1018.65 1018.49 1018.89 1018.95 1018.87 1018.86 1018.91 1019.05 1019.21 1019.41 1019.64 1019.90 1020.03
1016.79 1016.52 1016.31 1015.73 1015.23 1014.20 1013.22 1012.47 1011.93 1010.98 1010.30 1010.34 1010.57 1010.10 1009.52 1009.84 1010.30 1010.31 1010.21 1009.66 1009.45 1009.42 1009.45 1009.74 1010.10 1010.65 1011.39 1012.60 1012.98 1013.25 1013.86 1014.49 1014.73 1014.98 1015.22 1015.48 1016.00 1016.47 1016.96 1017.54 1018.45 1018.63 1018.50 1019.07 1019.85 1019.79 1019.63 1019.21 1019.20 1019.40 1019.66 1019.78 1020.02 1020.15
1016.80 1016.82 1016.61 1016.23 1015.46 1014.48 1013.29 1012.52 1012.02 1011.58 1011.23 1010.91 1010.48 1010.25 1009.93 1009.58 1009.47 1009.36 1009.27 1009.20 1009.24 1009.32 1009.43 1009.34 1009.72 1010.73 1011.16 1012.36 1013.38 1013.75 1013.82 1014.07 1014.28 1014.48 1014.63 1014.89 1015.37 1015.91 1016.63 1017.08 1017.67 1017.74 1017.87 1018.19 1018.88 1019.71 1020.15 1020.01 1020.28 1020.03 1019.87 1019.80 1019.74 1019.93
1016.84 1016.86 1016.95 1016.70 1015.63 1014.42 1013.73 1013.12 1012.63 1012.08 1011.60 1010.86 1010.39 1010.08 1009.57 1009.20 1008.88 1008.71 1008.54 1008.39 1008.23 1008.03 1008.07 1008.31 1008.79 1009.93 1010.73 1012.24 1013.08 1013.52 1013.29 1013.57 1013.88 1014.09 1014.26 1014.54 1015.05 1015.67 1016.32 1016.69 1017.03 1017.22 1017.60 1017.89 1018.37 1018.70 1019.10 1019.18 1019.10 1019.44 1019.69 1019.84 1020.25 1020.12
1016.40 1016.49 1016.50 1016.22 1015.37 1014.32 1013.68 1012.86 1012.16 1011.18 1010.56 1009.93 1009.10 1008.96 1008.87 1008.84 1008.45 1007.82 1007.12 1007.26 1007.20 1007.11 1007.60 1008.03 1007.48 1008.32 1009.94 1011.65 1012.87 1012.89 1012.66 1012.96 1013.76 1014.24 1014.62 1014.75 1014.89 1015.49 1016.10 1016.45 1016.72 1016.96 1017.38 1017.64 1017.90 1018.13 1018.72 1018.85 1019.05 1019.34 1019.70 1019.98 1020.17 1020.41
1015.38 1015.42 1015.34 1015.52 1015.37 1014.90 1014.24 1013.83 1011.93 1010.43 1009.12 1008.65 1008.43 1008.54 1008.76 1008.63 1008.41 1008.38 1008.10 1008.40 1007.90 1007.06 1006.98 1006.94 1007.20 1007.60 1008.67 1010.46 1011.71 1012.31 1012.90 1013.37 1013.90 1014.26 1014.69 1015.16 1015.40 1015.63 1015.81 1016.11 1016.41 1016.81 1017.19 1017.42 1017.61 1017.81 1018.36 1018.72 1018.95 1019.29 1019.49 1019.74 1020.05 1020.39
Wind_Speed
20 20 22 22 20 20 20 20 21 22 24 24 22 21 20 18 17 9 8 5 7 7 8 5 6 8 9 7 8 9 9 7 8 8 10 10 9 10 9 12 12 14 12 9 10 12 15 25 9 6 12 12 13 3
21 22 21 20 21 20 20 21 22 24 24 23 22 22 20 18 14 9 8 4 5 7 7 7 5 5 6 8 9 5 6 5 6 8 6 6 7 6 10 10 6 3 7 8 7 3 7 10 9 11 19 18 19 22
21 21 20 21 21 20 20 21 23 25 25 25 22 22 20 18 13 7 7 8 5 7 9 10 5 7 4 7 5 6 5 8 1 6 8 7 11 9 8 5 7 3 15 5 11 7 13 11 11 16 18 17 19 19
21 21 21 22 22 22 22 22 22 23 24 25 23 22 20 17 14 9 6 7 6 6 5 3 5 6 3 3 2 3 6 6 7 8 9 4 4 8 5 4 4 3 7 7 9 6 15 8 9 6 9 14 14 19
21 21 21 21 22 22 23 22 23 24 26 25 24 23 22 19 17 9 8 8 5 6 7 3 4 4 6 5 3 1 3 6 5 4 3 5 5 4 2 2 3 3 6 6 8 16 13 17 16 20 16 10 10 11
21 21 22 22 23 23 24 26 24 25 26 25 27 26 22 18 12 7 7 7 5 3 6 1 5 6 8 5 5 6 7 5 3 3 3 5 1 2 1 2 4 1 8 12 13 16 18 17 18 19 14 16 16 11
22 22 22 23 24 24 25 26 27 26 27 27 27 25 19 11 8 5 7 6 2 3 6 2 2 4 2 3 1 4 5 4 5 2 4 2 4 3 3 2 8 10 13 15 17 17 21 21 19 20 20 18 17 17
22 22 23 23 24 25 24 25 26 26 27 29 27 21 6 7 6 5 5 5 5 5 5 4 2 5 3 3 2 3 1 2 3 2 3 3 4 2 1 7 13 16 18 17 17 17 20 21 18 18 17 17 17 18
22 23 23 25 24 23 23 25 23 27 31 30 21 9 5 6 4 6 4 6 5 6 6 2 6 3 4 3 3 2 3 1 1 1 3 4 1 1 7 11 17 18 17 18 17 19 19 19 21 20 19 20 19 16
22 23 24 24 23 23 24 21 24 31 32 29 8 7 4 6 3 5 5 6 6 5 5 2 7 2 3 6 4 1 2 3 1 5 2 4 4 6 5 14 14 16 17 17 18 15 15 14 16 16 17 17 16 17
22 23 25 24 23 23 22 17 25 29 11 6 5 4 7 6 5 6 5 5 5 4 4 2 8 8 4 8 3 5 2 2 1 1 5 1 2 8 12 14 13 14 18 17 16 17 16 18 16 16 16 16 15 16
23 23 23 23 23 21 17 19 22 10 6 9 8 7 6 6 4 5 5 3 2 3 2 6 4 3 3 3 3 3 1 4 4 1 3 2 6 10 12 13 15 16 16 17 16 17 16 17 17 16 13 11 12 12
24 24 24 24 23 14 16 21 19 17 13 3 4 6 2 3 2 2 1 3 2 2 1 4 2 4 5 4 2 2 3 3 2 5 1 3 10 10 11 11 13 14 15 17 18 17 17 18 19 21 13 11 10 11
25 26 26 22 14 15 21 21 21 10 5 5 3 3 5 4 4 2 6 7 6 5 6 6 4 4 4 1 3 3 4 3 3 2 3 9 10 11 10 11 11 13 15 15 17 16 16 17 16 19 17 14 13 13
26 29 26 7 15 20 23 22 14 3 5 4 3 4 3 2 3 5 3 5 4 4 6 5 3 3 4 1 2 3 2 1 3 3 8 8 9 9 11 9 10 11 12 13 13 13 15 15 15 16 16 15 16 18
27 28 4 15 20 23 24 13 3 2 4 5 5 5 4 1 4 4 3 4 4 4 2 3 1 2 1 2 2 2 4 2 3 8 6 4 6 10 7 8 8 10 10 11 11 11 12 14 13 13 15 16 16 17
26 5 18 20 23 24 12 4 2 3 5 4 6 4 4 1 1 3 4 4 4 6 6 3 2 5 1 2 2 3 3 5 6 5 8 5 7 5 7 8 10 9 9 11 11 12 12 11 13 14 16 15 16 16
11 16 20 23 18 11 2 3 2 4 6 9 4 4 1 3 3 4 2 3 3 4 4 5 1 1 4 4 3 1 3 3 5 5 5 7 6 5 9 8 6 8 9 10 11 12 12 12 12 9 13 13 13 14
19 18 22 19 7 5 5 2 2 4 5 3 3 2 3 1 1 1 1 3 4 3 1 0 1 3 2 2 3 2 5 4 4 6 7 7 4 8 6 5 6 7 10 10 9 8 8 12 10 8 8 8 8 7
25 13 11 10 4 3 6 4 3 5 4 5 5 5 3 1 1 2 3 3 2 1 1 1 3 4 4 5 3 5 4 3 2 5 6 7 7 6 4 4 4 3 4 8 8 7 8 8 8 7 6 7 9 10
15 9 6 3 4 4 4 5 5 3 5 4 6 3 2 3 6 5 2 3 1 2 3 3 6 6 5 5 5 4 5 4 4 4 4 7 4 5 8 4 7 3 2 7 6 5 4 5 4 5 6 8 9 10
4 7 5 1 4 3 5 5 6 7 4 5 5 6 2 3 4 4 5 3 1 2 4 4 6 6 6 5 5 5 6 6 6 6 6 3 4 4 4 4 5 2 6 7 4 4 5 5 4 6 8 9 9 10
10 1 4 3 4 2 6 4 4 5 5 3 3 4 4 4 4 4 2 4 3 5 5 7 8 5 7 8 7 6 5 4 5 5 4 5 4 4 4 4 4 5 6 6 5 6 6 2 4 6 6 7 7 7
5 3 4 4 3 4 4 3 4 4 5 7 5 7 3 4 5 4 3 2 6 7 7 9 7 7 7 6 5 5 6 3 5 5 5 5 5 5 5 5 5 5 5 5 5 5 5 5 0 6 6 6 6 7
4 4 4 4 4 4 4 3 5 4 5 3 4 3 2 3 3 3 4 3 7 7 8 7 6 5 5 6 5 6 5 5 5 6 5 3 6 6 5 5 5 4 4 5 5 5 5 6 6 7 7 7 7 7
3 3 2 3 2 2 4 3 4 6 7 5 3 2 2 3 4 2 3 4 6 7 7 6 4 3 3 3 5 6 6 5 5 6 6 6 5 5 6 6 6 5 3 4 4 4 5 5 6 5 7 7 2 4
4 0 1 4 3 4 4 3 5 5 5 5 4 3 3 5 3 4 2 4 5 6 6 5 5 5 2 5 5 6 6 5 5 4 6 5 4 4 5 6 6 5 4 3 2 3 4 4 4 5 5 5 5 5
3 4 7 6 7 6 9 8 7 6 4 4 4 3 4 5 5 3 3 4 4 1 2 4 4 4 4 7 7 7 7 6 6 7 7 6 5 4 4 5 8 8 2 4 5 1 1 3 3 3 4 5 4 4
3 3 5 8 6 6 5 7 8 6 6 2 5 9 4 3 2 3 6 5 2 3 4 4 4 5 7 7 4 7 7 8 11 12 13 9 8 7 6 8 7 7 6 7 5 6 9 6 6 4 4 4 4 4
3 3 4 5 5 4 5 5 9 9 9 10 9 9 10 9 9 8 7 8 8 7 7 6 7 7 8 8 6 6 7 8 8 8 9 8 8 8 8 8 9 7 5 7 7 7 3 5 5 5 4 4 4 4
3 2 2 4 6 8 9 9 10 11 12 13 11 12 12 11 9 8 9 9 9 10 10 9 9 9 8 9 9 8 10 9 10 9 6 6 7 9 9 8 7 6 6 6 7 7 7 6 4 4 4 4 3 4
3 4 3 4 6 9 12 8 10 12 9 12 10 10 9 7 10 9 1 3 6 8 9 10 9 9 11 11 10 11 8 8 8 7 10 6 7 9 9 8 8 7 7 7 6 6 6 4 5 4 5 4 3 2
5 7 4 3 3 4 5 7 8 10 8 7 7 3 6 9 5 3 4 5 7 7 3 6 6 6 14 14 13 5 6 7 9 6 8 5 6 3 6 7 8 8 9 7 7 7 7 5 5 5 4 3 4 3
Wind_Direction
333 331 331 330 327 327 325 322 319 321 327 328 332 333 332 326 324 321 304 248 271 296 307 353 345 343 336 312 315 25 283 174 255 252 270 279 280 280 293 285 280 288 302 225 249 271 249 3 3 359 347 357 6 345
336 336 334 332 332 332 331 325 325 325 324 326 328 329 327 322 320 324 275 156 224 259 342 326 322 329 345 338 307 282 329 291 331 309 357 317 312 294 302 294 40 305 349 326 22 11 14 39 47 3 357 360 356 335
334 334 331 328 327 328 326 326 327 327 326 326 325 324 322 320 316 298 289 294 237 256 228 217 167 90 7 359 332 291 40 356 20 336 308 308 296 344 322 38 305 60 12 36 337 39 346 331 12 1 345 343 339 327
331 330 328 326 324 327 325 327 325 323 324 326 324 320 319 318 309 282 244 212 254 286 290 70 173 104 331 25 45 276 310 304 282 267 271 330 343 30 42 51 48 332 310 334 261 266 335 144 334 282 300 309 319 326
324 325 325 324 324 326 326 329 326 322 323 323 323 319 319 318 304 257 226 253 248 308 328 105 146 93 48 33 51 59 334 305 317 15 357 28 35 28 63 130 68 345 351 332 308 321 303 296 308 309 301 280 274 294
322 324 324 325 325 327 328 330 326 324 322 318 317 317 316 316 296 198 189 191 215 229 274 194 174 172 120 94 61 33 349 321 351 121 74 96 139 254 360 60 75 293 237 252 276 280 287 293 288 298 306 313 296 264
321 322 324 324 325 330 332 330 327 324 316 313 316 316 311 299 241 308 12 39 59 222 251 268 113 246 306 174 356 92 53 33 3 60 63 141 122 267 32 12 312 335 339 328 323 327 310 309 309 304 294 301 306 284
321 323 324 325 329 332 331 327 326 320 314 314 318 317 288 177 256 207 138 58 322 264 268 288 283 111 334 11 175 72 195 188 40 77 180 8 131 154 171 352 348 342 335 326 329 325 307 302 302 287 301 297 291 288
321 323 325 330 331 330 330 328 327 327 317 314 314 314 181 230 230 68 344 263 228 292 302 7 315 95 286 195 75 45 318 325 53 68 70 291 204 105 33 332 346 349 319 322 325 313 309 306 299 296 290 286 277 279
322 323 327 332 332 332 331 332 339 328 318 303 273 206 182 50 332 258 182 191 201 185 236 343 269 243 320 329 64 258 267 27 138 67 310 3 281 77 30 5 347 328 350 346 318 308 308 300 299 293 288 284 284 274
322 324 330 331 331 331 328 337 340 327 300 343 340 355 346 321 239 214 226 198 183 187 217 358 10 322 87 328 360 3 71 334 139 81 304 56 255 51 14 355 341 3 351 332 322 320 315 308 299 290 277 277 275 272
322 323 322 324 328 326 324 337 337 338 345 313 302 293 276 238 219 243 214 155 307 169 103 336 15 356 47 307 169 281 233 198 62 43 270 269 69 29 358 346 16 4 343 333 333 340 335 322 312 294 282 261 279 303
320 321 322 324 325 326 330 326 325 313 295 219 221 230 232 211 333 236 351 49 25 353 273 335 325 0 122 285 31 322 253 77 129 213 122 191 36 17 353 11 5 355 342 339 347 358 347 355 6 19 24 14 1 12
320 320 320 322 326 322 328 326 324 317 251 255 265 296 259 185 30 3 40 35 49 333 355 347 330 358 28 98 336 280 63 269 286 21 325 45 20 2 347 23 8 344 344 350 360 7 3 11 18 28 30 32 34 39
322 319 319 321 332 334 330 325 318 240 273 274 257 245 192 72 61 51 12 82 62 321 349 303 163 280 63 173 22 21 237 298 42 280 37 40 14 341 19 9 8 348 353 2 12 9 14 19 29 32 30 35 40 42
324 309 16 344 342 334 320 310 236 255 257 264 240 238 197 274 57 56 13 73 12 329 252 236 81 4 63 327 235 44 2 8 339 28 51 11 4 26 351 26 7 10 5 13 18 19 29 29 35 41 41 42 45 49
311 278 357 343 335 317 299 284 271 251 308 255 209 234 297 238 40 68 30 33 360 300 21 340 306 52 297 300 48 49 350 11 15 37 78 53 35 11 18 27 29 20 18 25 26 27 37 38 45 48 48 48 51 49
300 315 332 326 329 294 245 215 259 272 257 232 261 132 163 3 336 52 49 25 335 350 356 37 344 298 21 358 18 7 41 78 88 51 51 65 48 42 50 47 41 38 38 39 41 41 42 45 47 49 59 54 56 54
307 307 302 299 313 311 296 235 202 285 291 290 282 208 254 82 72 321 67 78 26 354 237 85 30 12 37 85 350 44 54 40 38 80 102 93 66 79 76 56 47 55 55 42 46 52 56 56 57 57 57 59 65 68
298 291 278 272 229 265 257 207 196 247 292 316 280 270 263 117 123 218 173 220 274 356 278 49 44 37 49 72 47 57 38 31 268 165 135 115 127 104 106 95 61 25 107 83 59 50 61 57 52 34 52 63 51 45
288 24 342 203 210 241 287 295 249 212 259 282 295 262 271 205 228 214 181 232 245 244 105 71 88 85 67 69 80 80 82 1 35 2 60 120 131 136 147 142 130 174 144 101 87 84 92 65 75 106 33 52 83 86
320 337 309 357 274 217 253 267 287 329 269 277 281 237 261 235 191 188 214 198 160 102 48 101 105 137 137 138 120 62 92 107 93 116 125 149 164 121 93 108 116 89 68 90 105 97 103 111 62 69 84 94 66 44
289 248 260 239 272 266 258 238 256 264 249 245 219 225 213 201 171 212 212 185 133 90 116 111 123 126 108 123 125 129 127 152 124 112 150 111 119 120 115 106 103 101 99 95 88 80 79 348 51 62 76 62 65 78
91 256 280 264 247 276 269 266 263 263 264 235 246 239 258 151 204 216 203 114 126 131 128 137 142 133 137 155 174 152 167 165 122 127 149 158 142 125 118 113 99 84 87 97 99 100 94 86 121 73 69 68 65 62
283 266 212 253 246 290 275 323 321 298 297 296 274 250 274 268 227 236 176 157 142 162 140 177 165 176 193 168 150 135 161 178 166 151 168 158 120 143 141 129 118 113 134 124 108 102 95 78 57 42 36 39 42 57
277 196 196 311 308 15 298 327 299 313 305 283 264 306 320 266 256 226 120 143 134 134 149 170 181 193 180 164 152 148 167 197 158 162 163 163 172 165 151 154 150 142 126 113 114 103 91 77 69 84 116 130 221 21
268 334 200 209 248 279 285 283 297 291 291 284 290 265 233 234 242 92 121 98 103 135 157 157 148 189 195 125 105 114 142 156 197 150 149 165 165 158 165 169 161 127 124 114 101 75 94 92 73 84 95 78 52 43
288 304 309 318 300 288 280 286 272 249 246 301 296 259 295 342 24 56 115 64 66 127 125 123 141 182 158 127 129 146 152 145 128 148 143 152 162 156 133 109 93 43 60 38 8 233 192 110 107 106 93 85 89 72
271 315 305 296 312 296 263 248 240 271 307 307 292 304 324 52 95 19 344 338 162 180 188 172 170 145 129 131 169 156 156 167 174 169 175 168 167 167 165 136 153 186 178 131 95 2 33 29 47 84 131 100 89 66
295 330 304 294 275 259 271 319 312 317 310 302 302 297 289 283 280 278 255 238 220 215 233 233 149 199 174 159 156 176 187 193 192 186 189 183 182 167 173 170 174 196 179 144 136 131 101 168 138 182 190 177 174 149
284 295 282 259 277 294 294 292 284 275 273 276 265 265 272 281 281 273 262 259 263 261 246 227 178 195 184 168 174 177 200 195 199 199 205 162 175 164 178 182 182 184 173 167 158 173 163 211 156 143 156 85 87 289
244 228 234 249 288 311 313 313 299 278 260 262 250 240 250 263 271 289 317 316 270 236 231 246 232 184 163 182 183 217 215 164 178 191 181 198 174 163 175 185 188 179 180 184 182 157 177 192 162 158 159 170 161 134
251 262 290 310 286 281 307 317 281 280 257 249 261 237 252 240 212 202 92 13 343 339 225 218 218 225 155 157 185 130 123 164 179 179 144 88 51 123 180 190 181 183 186 200 194 179 178 186 179 183 190 166 168 157